Presure
98 133 141 131 134 124 122 157 140 133 147 178 141 139 118 128 155 138 162 108 139 167 166 142 155 155 162 123 182 170 150 179 162 179 118 155 209 210 142 215 170 195 132 218 105 191 196 210 202
116 137 132 136 129 143 154 134 141 182 158 109 122 165 163 168 150 145 153 128 141 168 159 163 134 162 151 151 144 177 168 140 173 141 175 141 175 148 184 208 210 202 216 169 205 208 207 208 209
103 123 153 112 156 141 146 147 158 134 134 174 158 166 171 127 133 151 112 157 154 166 126 153 152 192 161 130 111 140 139 169 133 148 152 182 175 175 136 145 203 194 193 214 202 170 151 198 195
116 151 127 156 128 162 166 174 159 126 125 173 115 114 168 142 187 138 171 180 158 166 172 181 160 121 159 177 170 151 182 143 153 197 194 183 151 171 209 201 145 184 211 217 209 206 209 204 195
139 121 115 155 157 149 140 138 136 140 132 133 117 159 159 115 125 145 154 122 176 130 168 170 170 164 141 158 172 132 177 164 179 175 178 175 197 159 193 211 196 209 205 218 209 209 207 201 194
127 123 134 134 133 138 146 136 173 167 154 168 154 166 116 143 134 126 124 162 179 167 152 179 153 170 140 152 179 163 162 157 177 173 149 181 192 200 203 153 183 216 210 214 154 201 200 207 197
160 110 151 95 124 149 134 130 154 165 146 159 164 164 159 127 143 162 119 121 166 146 168 138 186 165 159 174 181 159 174 179 171 192 187 141 195 161 185 192 194 187 211 211 207 194 200 211 193
110 124 104 137 149 151 116 121 152 164 141 156 155 163 141 159 161 150 160 142 160 165 125 130 157 169 132 171 131 127 178 134 178 185 196 173 190 177 192 171 192 192 191 214 207 195 202 200 203
125 148 132 157 159 158 152 146 154 145 132 142 139 147 136 144 140 149 155 162 169 173 161 156 134 140 172 155 162 139 178 168 183 164 185 148 182 172 171 194 159 154 171 210 209 195 191 190 192
142 153 162 153 157 130 126 146 154 155 161 142 157 123 159 161 151 152 135 147 160 153 170 171 143 153 126 167 170 176 159 176 178 173 167 142 177 163 160 186 195 188 192 181 212 204 196 187 190
119 124 135 147 154 158 159 125 117 159 158 158 156 159 154 169 151 156 157 152 152 167 150 167 159 171 130 143 163 129 160 181 173 191 173 169 173 159 143 161 184 187 190 182 201 207 204 197 185
119 126 161 152 116 144 131 157 161 145 160 167 161 123 149 156 159 174 147 145 159 156 126 131 162 163 156 169 147 167 171 171 174 188 183 169 190 180 165 183 152 180 164 194 204 202 202 172 191
152 144 150 132 153 145 157 152 124 156 165 151 160 164 151 155 126 158 132 95 117 164 150 164 155 161 157 147 152 167 169 178 180 186 175 181 187 173 180 166 153 172 168 152 171 193 188 186 173
157 161 119 117 141 142 147 159 151 155 155 154 162 142 147 164 162 146 146 171 157 118 163 156 155 148 136 152 167 158 168 177 171 162 180 164 191 170 170 176 158 156 164 159 160 165 172 132 139
151 144 161 131 161 136 176 112 154 137 160 159 149 136 158 128 146 166 127 163 149 144 125 168 159 158 162 155 169 169 161 179 190 176 165 173 159 189 174 187 163 191 177 171 155 138 149 167 192
153 155 136 142 151 162 142 134 154 125 130 150 127 154 143 131 168 166 151 145 148 150 156 156 145 127 155 160 169 163 173 181 175 175 176 179 174 171 171 162 172 170 198 180 155 191 157 189 166
154 146 143 161 160 158 161 153 160 149 141 148 143 158 161 162 150 142 150 137 139 149 144 152 155 158 160 169 175 178 176 179 176 164 165 177 173 176 190 169 170 169 172 199 182 172 171 171 183
157 158 177 174 175 153 160 168 171 157 160 152 178 172 168 164 144 163 159 150 153 155 159 162 163 164 177 183 183 182 184 179 172 168 179 187 179 169 185 177 177 174 169 160 154 182 191 183 198
174 169 164 164 148 146 163 158 143 168 159 175 168 170 159 153 163 164 155 68 158 159 159 164 165 180 190 179 177 172 160 170 178 158 173 183 177 178 217 208 209 169 183 191 174 196 196 164 180
181 183 181 174 161 161 161 150 160 152 158 175 170 159 163 161 171 170 170 170 170 159 163 166 181 163 168 173 188 187 180 180 183 175 175 170 180 205 210 194 208 198 190 201 185 175 193 180 178
179 183 161 165 174 173 162 162 166 166 172 175 170 176 183 185 182 173 167 179 191 204 183 171 182 173 187 186 192 185 181 174 173 176 170 180 184 199 152 193 202 193 192 200 178 186 191 186 190
154 160 172 175 175 171 175 179 159 163 170 174 192 190 190 197 199 186 199 176 178 177 178 158 170 188 129 178 192 184 179 170 176 182 189 179 182 210 212 203 193 199 191 184 194 187 185 188 176
182 178 172 174 179 173 174 192 71 168 186 185 179 177 179 80 87 174 172 175 178 184 176 195 189 138 188 190 198 194 181 191 184 191 200 199 199 197 213 185 201 193 190 187 184 192 185 192 180
171 199 186 179 193 183 186 210 154 183 119 129 199 83 187 186 186 187 179 177 171 115 192 195 145 135 210 205 194 223 206 194 211 204 190 211 214 202 209 180 203 186 200 203 184 191 193 182 181
188 183 186 183 199 189 184 191 193 157 139 139 198 142 163 221 220 214 203 126 183 216 216 203 195 172 220 222 222 212 217 226 207 204 188 216 202 204 191 203 207 190 193 197 192 196 193 149 182
182 226 224 196 194 229 210 206 206 215 208 204 201 218 234 241 225 141 249 214 225 236 238 224 202 202 221 200 216 203 217 235 213 218 201 210 219 200 204 196 196 195 198 196 202 191 196 190 189
217 228 217 216 220 220 225 226 222 222 227 214 215 213 223 209 201 190 231 254 222 199 210 199 225 226 217 247 230 223 234 188 204 201 212 207 194 205 202 196 182 194 197 191 191 192 218 181 183
214 214 208 210 207 206 204 210 218 192 186 186 188 201 202 209 211 239 194 197 191 184 185 202 209 198 208 207 211 217 226 223 227 213 200 213 208 196 200 205 195 211 198 199 194 195 200 193 195
202 205 219 216 211 207 210 205 207 199 203 204 198 203 212 219 222 205 189 181 186 197 215 199 192 188 213 233 212 218 211 221 212 207 175 216 192 214 206 205 204 204 203 220 202 192 192 195 197
200 207 201 197 177 211 203 205 206 207 213 204 201 199 209 201 201 246 215 186 183 195 191 199 200 159 236 218 216 215 222 221 220 215 215 213 212 200 209 212 214 204 203 206 211 201 212 204 215
Wind_Speed
34 39 36 43 37 43 44 43 38 36 38 39 43 37 47 51 44 42 40 43 52 43 39 57 41 51 51 40 47 45 44 47 40 49 40 33 48 42 31 44 38 42 51 37 39 39 38 36 36
52 41 41 37 34 41 43 41 42 41 39 54 50 37 33 37 46 51 41 51 44 44 48 47 55 45 55 56 43 50 49 50 50 43 53 29 39 40 43 42 44 42 41 44 41 37 36 36 34
38 45 47 36 44 41 42 45 42 37 45 42 38 38 36 49 54 44 39 44 46 43 48 50 54 52 45 51 46 66 58 52 38 43 40 53 58 41 47 43 41 45 41 38 40 37 49 36 36
50 49 44 48 39 48 48 46 47 42 47 43 53 36 37 46 52 50 44 46 49 46 49 52 55 45 48 50 46 61 61 65 61 65 60 54 60 41 45 43 37 39 43 37 37 35 33 33 33
50 49 49 52 47 47 49 51 45 46 48 48 55 40 39 48 59 57 50 47 45 50 45 50 45 47 60 50 49 57 57 52 62 64 56 54 56 60 51 44 43 46 44 36 35 32 31 33 33
54 51 56 51 48 48 52 53 60 48 48 48 47 49 48 46 60 39 52 49 52 50 57 53 52 50 63 55 64 46 66 58 65 64 67 55 55 50 47 57 45 44 43 38 35 34 32 32 32
52 52 55 41 52 52 55 55 61 60 45 50 57 51 51 54 50 54 57 55 55 57 53 60 62 54 48 63 71 49 67 72 65 58 55 51 50 62 49 47 42 39 43 40 35 38 33 29 31
53 54 45 57 61 62 49 53 60 63 54 55 50 56 54 55 53 52 53 58 56 56 59 63 56 54 69 67 70 66 70 65 62 58 54 56 42 52 48 57 45 43 41 40 37 38 31 32 30
60 62 60 61 58 65 66 63 62 60 56 54 51 58 59 57 55 55 62 59 60 63 61 53 68 62 65 53 63 68 75 52 69 54 53 65 46 53 57 45 51 51 47 43 38 39 38 38 32
65 66 69 67 63 63 57 64 67 68 69 60 64 60 62 61 56 60 65 66 57 56 69 64 65 62 72 67 73 80 51 73 66 56 52 62 45 53 52 45 41 42 43 44 37 37 39 40 37
57 64 67 68 67 70 72 66 59 72 70 65 65 67 67 68 58 62 60 59 60 68 63 65 63 71 69 74 68 73 58 78 66 60 54 50 48 48 58 61 51 35 38 40 38 36 36 37 38
65 72 75 76 54 69 69 74 78 67 74 77 65 62 66 67 68 73 68 63 63 65 72 73 67 68 60 81 64 77 80 70 64 61 56 54 54 46 54 49 61 34 54 37 38 38 36 37 40
74 76 75 75 78 76 77 73 72 81 82 69 69 69 66 65 72 67 69 32 54 74 71 70 66 70 67 68 67 82 76 77 68 64 59 58 59 51 45 52 66 50 49 57 41 39 40 39 38
82 82 73 76 77 78 76 81 77 85 77 76 80 69 73 75 73 69 66 80 75 49 80 71 70 73 69 77 82 79 79 80 70 62 62 61 57 56 50 54 52 64 55 57 54 44 46 52 50
79 77 89 84 93 83 91 69 84 81 86 84 78 79 76 79 75 80 77 79 69 72 79 90 79 81 88 75 91 90 81 84 78 71 63 62 63 58 55 53 58 53 50 52 61 47 56 49 44
93 88 89 88 87 94 81 81 86 83 86 82 85 81 83 83 83 74 69 71 73 73 84 85 75 68 83 91 94 86 92 88 79 77 69 66 65 61 59 61 58 52 54 54 63 47 64 48 52
86 89 87 94 99 97 93 88 95 92 89 89 85 90 90 91 82 78 77 82 84 81 88 91 90 94 100 107 106 101 97 88 85 77 73 70 66 66 67 62 60 63 57 58 57 58 55 56 48
92 91 96 97 99 93 94 94 96 97 101 88 101 97 99 90 82 95 91 87 92 97 99 103 105 106 108 105 100 96 93 86 84 84 79 77 72 71 72 63 61 61 63 62 60 57 54 53 50
102 105 102 105 94 92 102 92 91 107 101 103 102 104 93 90 97 98 92 18 98 102 105 105 105 108 98 97 94 88 87 85 86 81 84 79 77 79 64 68 58 66 64 62 62 60 59 59 58
99 100 102 102 104 105 104 97 105 105 101 107 103 96 101 100 107 108 105 105 104 98 111 106 109 99 100 101 97 91 89 89 89 85 83 83 81 76 63 70 63 62 63 64 62 64 61 62 60
106 108 101 103 108 109 101 102 110 116 110 108 103 107 114 112 108 102 99 105 105 96 107 108 107 103 109 104 103 96 91 90 87 87 84 86 82 80 73 67 64 66 66 64 65 63 63 64 65
90 96 107 110 112 109 112 110 108 115 107 108 114 108 109 111 110 108 107 94 93 98 100 88 106 108 56 104 107 102 95 93 92 89 89 89 86 68 65 64 67 67 69 68 64 69 66 66 67
124 123 111 112 118 107 115 121 8 115 117 113 110 107 106 22 34 102 99 98 97 105 98 108 106 65 101 105 104 103 99 100 94 95 94 88 77 74 64 74 67 69 71 72 72 69 72 71 72
111 127 119 117 129 116 123 122 85 117 48 65 112 30 112 111 113 114 107 104 100 55 113 107 71 66 106 102 101 88 99 96 86 91 91 71 67 71 67 78 69 75 73 71 73 72 73 76 78
127 124 127 120 122 126 117 120 119 97 80 71 111 79 74 108 110 113 116 67 61 106 102 105 103 59 88 85 87 90 86 76 87 85 87 70 74 68 78 70 71 72 73 73 75 73 76 65 81
118 106 107 124 120 107 117 121 117 113 108 109 106 105 95 87 94 59 78 89 89 79 80 85 95 97 84 91 88 91 83 80 78 76 82 80 74 76 71 76 77 77 76 76 73 75 79 81 84
103 97 107 111 103 102 97 102 111 106 100 100 103 100 98 97 98 96 88 77 86 95 94 89 85 84 86 82 82 83 79 91 84 83 77 81 87 78 79 79 88 82 81 82 79 79 76 81 84
103 106 109 107 109 108 100 94 97 95 89 89 92 94 95 98 97 82 93 93 86 91 91 95 95 93 95 95 89 84 85 83 82 84 86 80 86 90 89 88 88 86 85 85 86 85 85 85 86
104 106 104 107 107 107 103 100 101 94 94 98 93 97 102 99 97 96 93 92 96 101 96 103 98 96 104 100 101 100 95 95 89 87 72 87 91 95 95 94 93 91 89 97 88 87 88 93 95
103 101 106 104 87 108 97 97 101 105 108 106 103 101 103 96 95 91 98 94 100 105 106 107 108 77 108 107 106 104 103 103 103 98 98 99 97 95 104 107 105 97 96 101 107 99 109 107 112
Wind_Direction
285 281 280 286 286 281 276 300 289 293 297 293 295 291 299 296 293 301 304 297 309 305 315 308 312 308 326 300 338 335 323 335 322 325 288 320 325 319 285 313 290 295 275 304 286 294 288 281 275
271 284 279 284 280 288 297 288 296 304 299 294 294 303 298 307 293 297 301 307 300 309 299 305 311 316 300 304 317 340 315 316 319 317 318 307 315 310 314 314 308 302 309 284 298 297 290 283 277
276 272 288 283 293 285 288 294 290 291 295 308 299 304 312 298 299 298 297 303 295 308 309 299 305 331 311 311 290 310 312 329 306 320 318 323 316 314 294 280 309 307 301 305 298 288 285 280 282
272 286 278 288 282 292 301 306 294 286 286 305 291 291 311 294 327 299 310 319 300 308 317 325 307 307 321 339 323 301 342 310 309 334 328 324 315 307 317 313 291 307 308 308 301 299 286 280 280
280 277 274 288 289 292 289 285 288 289 286 292 289 300 296 293 295 303 304 300 320 307 314 315 320 313 308 313 333 312 340 312 328 322 323 319 324 314 316 314 311 309 307 311 304 299 291 281 280
283 282 284 282 283 287 290 287 300 292 292 296 297 307 289 283 291 292 299 305 318 306 300 326 314 325 298 305 337 320 323 311 328 315 309 323 321 319 317 316 307 314 311 312 290 302 301 284 280
286 274 284 284 289 288 284 286 291 297 287 300 301 302 303 290 286 309 303 307 318 300 315 301 323 316 314 332 334 313 334 335 325 327 323 309 324 314 317 318 317 312 315 311 305 301 300 283 285
274 282 281 286 287 286 280 288 288 295 286 296 296 303 285 303 305 292 307 291 304 308 307 306 317 323 307 331 309 308 332 311 327 325 320 315 319 316 320 314 313 312 312 311 305 300 296 291 274
277 283 284 280 282 284 286 285 288 285 292 290 286 293 294 299 294 296 306 305 314 314 306 299 301 302 326 300 321 302 329 323 326 315 315 308 317 311 311 314 317 317 313 311 304 299 296 296 290
280 283 284 284 284 285 286 288 291 292 289 292 295 291 297 299 295 299 300 304 303 294 314 314 306 307 306 324 324 328 311 322 321 314 311 312 311 307 311 317 310 309 308 313 303 298 294 293 293
276 283 282 280 285 285 285 287 291 287 291 290 289 295 296 301 292 298 296 293 294 312 292 314 307 322 305 302 319 304 307 319 313 318 307 305 305 301 312 305 315 309 305 304 301 297 289 287 288
281 278 279 285 281 284 280 286 288 287 288 288 292 296 292 299 298 305 289 287 304 303 300 299 312 316 305 320 291 317 315 312 311 315 309 299 314 305 295 309 310 310 302 306 298 296 292 296 286
276 275 282 280 282 279 282 283 284 288 286 286 288 292 289 291 295 296 296 286 300 305 296 311 302 311 306 291 301 311 310 310 308 308 304 307 312 298 292 289 305 295 298 307 301 298 294 283 293
278 281 277 286 273 276 280 290 282 282 284 287 289 279 287 297 294 288 287 300 305 296 309 308 306 294 300 304 307 306 307 308 305 297 306 299 307 295 290 303 304 295 296 297 299 299 303 278 286
274 271 280 276 279 277 285 289 283 277 290 289 285 288 289 290 284 295 295 300 286 288 299 310 308 304 303 294 306 305 304 305 305 301 297 300 292 307 297 308 287 309 294 292 296 294 301 297 280
274 274 273 278 280 281 273 276 284 287 283 283 286 287 291 292 293 296 276 284 292 291 300 300 291 291 295 297 303 305 306 306 301 300 299 301 299 297 295 290 291 287 306 296 290 290 292 287 291
276 272 273 274 276 278 281 283 282 280 279 281 280 287 289 294 292 284 292 289 289 295 293 293 295 297 298 300 301 304 304 301 298 294 295 298 294 296 303 294 291 295 290 301 291 291 289 290 287
272 271 278 278 278 279 277 279 281 280 280 285 286 289 290 293 286 297 298 297 296 295 294 295 296 298 300 298 298 300 298 296 294 294 297 300 296 292 298 292 292 290 290 286 288 289 288 290 275
266 271 274 273 272 273 282 278 271 280 282 285 285 286 290 287 292 291 291 309 290 291 292 292 293 294 294 293 293 294 291 294 295 295 293 298 297 296 287 293 285 288 292 288 291 288 283 286 287
268 267 267 269 274 274 275 277 279 279 280 278 282 286 288 288 284 284 285 285 285 287 288 290 291 288 289 291 293 292 292 292 291 291 293 293 297 298 283 293 280 283 288 277 290 288 280 282 287
274 273 272 272 272 273 274 276 278 277 279 282 285 285 285 283 283 283 284 284 285 283 286 289 290 289 292 291 291 290 289 286 288 290 289 294 297 298 295 285 278 284 283 277 280 286 279 282 275
271 273 273 274 276 275 277 276 277 280 281 283 282 282 284 282 281 284 283 283 285 286 287 285 286 287 280 287 289 287 286 286 288 292 293 292 293 283 278 272 281 273 281 285 277 280 279 278 287
269 271 275 275 275 279 278 278 213 281 281 282 281 283 284 270 277 284 283 285 286 289 286 288 286 283 286 286 285 285 285 288 289 290 291 291 285 287 272 287 270 274 278 282 285 276 279 273 282
272 270 274 277 275 276 277 278 276 280 271 281 281 273 283 284 284 284 284 285 286 289 287 286 286 286 283 283 282 277 282 285 284 286 288 279 273 276 265 287 264 280 267 266 281 274 273 281 280
270 272 272 274 276 275 278 279 279 280 280 282 279 281 279 282 281 281 281 283 281 282 282 284 284 276 278 275 275 280 277 272 281 281 284 269 278 273 279 269 264 265 272 268 270 264 266 282 278
273 273 275 272 275 278 277 279 283 285 285 285 281 282 284 283 285 282 280 282 283 280 278 280 280 280 276 280 277 281 278 268 275 276 277 274 267 271 269 269 267 271 268 267 263 272 263 269 273
274 274 272 275 277 277 277 279 280 280 279 279 282 283 281 280 280 282 283 290 280 281 279 281 283 282 277 277 273 273 273 279 275 276 275 274 274 274 272 267 277 268 266 270 271 269 273 277 277
272 272 274 276 277 278 279 279 280 280 281 283 283 286 286 284 283 286 281 283 275 275 276 285 285 281 284 281 280 276 275 274 275 272 272 274 277 275 275 275 273 278 271 271 272 272 272 274 273
275 277 276 276 278 280 280 281 281 285 287 285 285 284 283 283 280 281 280 279 283 288 283 285 278 277 285 277 281 280 282 282 277 275 280 277 271 278 277 277 276 277 279 280 278 279 281 282 280
274 272 275 279 277 278 280 282 284 284 284 286 286 284 284 281 280 281 281 278 279 281 280 282 282 281 273 277 277 278 276 277 277 276 276 275 272 274 271 273 273 276 276 275 272 276 273 274 273